TimeCDT,TemperatureF,Dew PointF,Humidity,Sea Level PressureIn,VisibilityMPH,Wind Direction,Wind SpeedMPH,Gust SpeedMPH,PrecipitationIn,Events,Conditions,WindDirDegrees,DateUTC
12:15 AM,42.8,39.2,87,29.97,10.0,Calm,Calm,-,N/A,,Clear,0,2012-10-04 05:15:00
12:35 AM,41.0,37.4,87,29.97,10.0,Calm,Calm,-,N/A,,Clear,0,2012-10-04 05:35:00
12:55 AM,41.0,37.4,87,29.97,10.0,Calm,Calm,-,N/A,,Clear,0,2012-10-04 05:55:00
1:15 AM,41.0,37.4,87,29.97,10.0,Calm,Calm,-,N/A,,Clear,0,2012-10-04 06:15:00
1:35 AM,41.0,37.4,87,29.96,10.0,Calm,Calm,-,N/A,,Clear,0,2012-10-04 06:35:00
1:55 AM,44.6,41.0,87,29.96,10.0,Calm,Calm,-,N/A,,Clear,0,2012-10-04 06:55:00
2:15 AM,42.8,41.0,93,29.95,10.0,Calm,Calm,-,N/A,,Clear,0,2012-10-04 07:15:00
2:35 AM,41.0,37.4,87,29.94,10.0,Calm,Calm,-,N/A,,Clear,0,2012-10-04 07:35:00
2:55 AM,41.0,37.4,87,29.94,10.0,Calm,Calm,-,N/A,,Clear,0,2012-10-04 07:55:00
3:15 AM,41.0,39.2,93,29.93,10.0,Calm,Calm,-,N/A,,Clear,0,2012-10-04 08:15:00
3:35 AM,41.0,39.2,93,29.93,10.0,Calm,Calm,-,N/A,,Clear,0,2012-10-04 08:35:00
3:55 AM,42.8,41.0,93,29.93,10.0,Calm,Calm,-,N/A,,Clear,0,2012-10-04 08:55:00
4:15 AM,42.8,41.0,93,29.92,10.0,Calm,Calm,-,N/A,,Clear,0,2012-10-04 09:15:00
4:35 AM,41.0,39.2,93,29.92,10.0,Calm,Calm,-,N/A,,Clear,0,2012-10-04 09:35:00
4:55 AM,42.8,42.8,100,29.92,10.0,Calm,Calm,-,N/A,,Clear,0,2012-10-04 09:55:00
5:15 AM,44.6,42.8,93,29.90,10.0,SE,3.5,-,N/A,,Scattered Clouds,140,2012-10-04 10:15:00
5:55 AM,44.6,42.8,93,29.89,10.0,Calm,Calm,-,N/A,,Clear,0,2012-10-04 10:55:00
6:15 AM,44.6,41.0,87,29.89,10.0,Calm,Calm,-,N/A,,Clear,0,2012-10-04 11:15:00
6:35 AM,42.8,41.0,93,29.88,10.0,Calm,Calm,-,N/A,,Clear,0,2012-10-04 11:35:00
6:55 AM,44.6,42.8,93,29.88,10.0,Calm,Calm,-,N/A,,Clear,0,2012-10-04 11:55:00
7:15 AM,46.4,42.8,87,29.87,10.0,SSE,3.5,-,N/A,,Clear,150,2012-10-04 12:15:00
7:35 AM,46.4,44.6,93,29.87,10.0,SSE,3.5,-,N/A,,Clear,150,2012-10-04 12:35:00
7:55 AM,48.2,44.6,87,29.85,10.0,SSE,3.5,-,N/A,,Clear,150,2012-10-04 12:55:00
8:15 AM,50.0,44.6,82,29.85,10.0,SSE,4.6,-,N/A,,Clear,150,2012-10-04 13:15:00
8:35 AM,51.8,46.4,82,29.84,10.0,SSE,4.6,-,N/A,,Clear,160,2012-10-04 13:35:00
8:55 AM,53.6,46.4,77,29.84,10.0,South,5.8,-,N/A,,Clear,170,2012-10-04 13:55:00
9:15 AM,55.4,46.4,72,29.84,10.0,South,5.8,-,N/A,,Clear,170,2012-10-04 14:15:00
9:35 AM,55.4,46.4,72,29.83,10.0,South,8.1,-,N/A,,Scattered Clouds,180,2012-10-04 14:35:00
9:55 AM,57.2,46.4,67,29.83,10.0,South,4.6,-,N/A,,Scattered Clouds,190,2012-10-04 14:55:00
10:15 AM,57.2,44.6,63,29.83,10.0,SW,5.8,-,N/A,,Scattered Clouds,220,2012-10-04 15:15:00
10:35 AM,59.0,44.6,59,29.83,10.0,SSW,9.2,-,N/A,,Scattered Clouds,210,2012-10-04 15:35:00
10:55 AM,59.0,44.6,59,29.83,10.0,SSW,6.9,-,N/A,,Scattered Clouds,210,2012-10-04 15:55:00
11:15 AM,57.2,41.0,55,29.84,10.0,SW,11.5,20.7,N/A,,Scattered Clouds,230,2012-10-04 16:15:00
11:35 AM,55.4,41.0,58,29.86,10.0,WSW,12.7,20.7,N/A,,Scattered Clouds,240,2012-10-04 16:35:00
11:55 AM,53.6,41.0,62,29.86,7.0,WSW,10.4,17.3,N/A,,Scattered Clouds,240,2012-10-04 16:55:00
12:15 PM,53.6,39.2,58,29.85,10.0,South,6.9,-,N/A,,Scattered Clouds,190,2012-10-04 17:15:00
12:35 PM,55.4,39.2,54,29.86,10.0,SSW,6.9,16.1,N/A,,Clear,210,2012-10-04 17:35:00
12:55 PM,55.4,37.4,51,29.86,10.0,SW,10.4,19.6,N/A,,Clear,220,2012-10-04 17:55:00
1:35 PM,55.4,37.4,51,29.85,10.0,WSW,6.9,20.7,N/A,,Scattered Clouds,240,2012-10-04 18:35:00
1:55 PM,57.2,37.4,48,29.85,10.0,WSW,10.4,19.6,N/A,,Scattered Clouds,240,2012-10-04 18:55:00
2:15 PM,57.2,35.6,44,29.85,10.0,SW,10.4,17.3,N/A,,Clear,230,2012-10-04 19:15:00
2:35 PM,55.4,33.8,44,29.87,10.0,WSW,8.1,17.3,N/A,,Clear,250,2012-10-04 19:35:00
2:55 PM,55.4,33.8,44,29.87,10.0,SW,12.7,19.6,N/A,,Clear,230,2012-10-04 19:55:00
3:15 PM,55.4,32.0,41,29.88,10.0,West,15.0,23.0,N/A,,Clear,260,2012-10-04 20:15:00
3:35 PM,55.4,32.0,41,29.88,10.0,WSW,9.2,24.2,N/A,,Clear,250,2012-10-04 20:35:00
3:55 PM,55.4,32.0,41,29.88,10.0,WSW,12.7,20.7,N/A,,Clear,250,2012-10-04 20:55:00
4:15 PM,53.6,32.0,44,29.89,10.0,WSW,8.1,21.9,N/A,,Clear,250,2012-10-04 21:15:00
4:35 PM,53.6,32.0,44,29.90,10.0,WSW,12.7,19.6,N/A,,Clear,250,2012-10-04 21:35:00
4:55 PM,51.8,32.0,47,29.91,10.0,WSW,10.4,20.7,N/A,,Clear,240,2012-10-04 21:55:00
5:15 PM,50.0,30.2,47,29.92,10.0,West,17.3,27.6,N/A,,Clear,260,2012-10-04 22:15:00
5:35 PM,50.0,32.0,50,29.92,10.0,West,15.0,24.2,N/A,,Clear,270,2012-10-04 22:35:00
5:55 PM,46.4,30.2,53,29.92,10.0,West,10.4,20.7,N/A,,Clear,260,2012-10-04 22:55:00
6:15 PM,46.4,30.2,53,29.93,10.0,West,9.2,20.7,N/A,,Clear,260,2012-10-04 23:15:00
6:35 PM,44.6,30.2,57,29.93,10.0,West,5.8,-,N/A,,Clear,260,2012-10-04 23:35:00
6:55 PM,44.6,30.2,57,29.94,10.0,West,10.4,19.6,N/A,,Clear,260,2012-10-04 23:55:00
7:15 PM,42.8,30.2,61,29.95,10.0,WSW,8.1,18.4,N/A,,Scattered Clouds,250,2012-10-05 00:15:00
7:35 PM,44.6,30.2,57,29.96,10.0,West,17.3,26.5,N/A,,Mostly Cloudy,260,2012-10-05 00:35:00
7:55 PM,42.8,30.2,61,29.96,10.0,West,11.5,23.0,N/A,,Mostly Cloudy,260,2012-10-05 00:55:00
8:15 PM,42.8,30.2,61,29.96,10.0,West,13.8,19.6,N/A,,Overcast,270,2012-10-05 01:15:00
8:35 PM,42.8,28.4,57,29.97,10.0,West,12.7,26.5,N/A,,Mostly Cloudy,260,2012-10-05 01:35:00
8:55 PM,42.8,28.4,57,29.97,10.0,West,12.7,21.9,N/A,,Mostly Cloudy,260,2012-10-05 01:55:00
9:15 PM,41.0,28.4,61,29.97,10.0,West,13.8,20.7,N/A,,Mostly Cloudy,260,2012-10-05 02:15:00
9:35 PM,41.0,28.4,61,29.97,10.0,West,12.7,24.2,N/A,,Overcast,260,2012-10-05 02:35:00
9:55 PM,41.0,28.4,61,29.97,10.0,West,16.1,26.5,N/A,,Overcast,260,2012-10-05 02:55:00
10:15 PM,41.0,28.4,61,29.98,10.0,West,19.6,27.6,N/A,,Overcast,270,2012-10-05 03:15:00
10:35 PM,41.0,28.4,61,29.98,10.0,West,17.3,27.6,N/A,,Overcast,270,2012-10-05 03:35:00
10:55 PM,41.0,28.4,61,29.98,10.0,West,16.1,24.2,N/A,,Overcast,270,2012-10-05 03:55:00
11:15 PM,39.2,28.4,65,29.97,10.0,West,11.5,17.3,N/A,,Overcast,270,2012-10-05 04:15:00
11:35 PM,39.2,26.6,61,29.98,10.0,West,16.1,23.0,N/A,,Overcast,260,2012-10-05 04:35:00
11:55 PM,37.4,26.6,65,29.98,10.0,West,10.4,27.6,N/A,,Overcast,270,2012-10-05 04:55:00